Time,TemperatureF,DewpointF,PressureIn,WindDirection,WindDirectionDegrees,WindSpeedMPH,WindSpeedGustMPH,Humidity,HourlyPrecipIn,Conditions,Clouds,dailyrainin,SoftwareType,DateUTC
2013-06-24 00:00:00,75.3,34.9,29.40,SW,224,0.0,3.0,23,0.00,CLR,,0.00,WeatherDisplay:10.37,2013-06-24 07:00:00,
2013-06-24 00:10:00,74.1,35.0,29.40,SW,224,1.0,5.0,24,0.00,CLR,,0.00,WeatherDisplay:10.37,2013-06-24 07:10:00,
2013-06-24 00:20:00,73.3,35.3,29.41,SW,224,0.0,3.0,25,0.00,CLR,,0.00,WeatherDisplay:10.37,2013-06-24 07:20:00,
2013-06-24 00:30:00,74.4,34.2,29.40,SSW,209,1.0,3.0,23,0.00,CLR,,0.00,WeatherDisplay:10.37,2013-06-24 07:30:00,
2013-06-24 00:40:00,74.3,35.2,29.41,South,178,0.0,8.0,24,0.00,CLR,,0.00,WeatherDisplay:10.37,2013-06-24 07:40:00,
2013-06-24 00:45:00,73.9,35.9,29.40,South,171,2.0,7.0,25,0.00,CLR,,0.00,WeatherDisplay:10.37,2013-06-24 07:45:00,
2013-06-24 01:00:00,74.2,35.1,29.41,SSW,195,6.0,14.0,24,0.00,CLR,,0.00,WeatherDisplay:10.37,2013-06-24 08:00:00,
2013-06-24 01:10:00,74.0,34.9,29.41,South,191,3.0,9.0,24,0.00,CLR,,0.00,WeatherDisplay:10.37,2013-06-24 08:10:00,
2013-06-24 01:15:00,74.0,34.9,29.40,South,189,2.0,9.0,24,0.00,CLR,,0.00,WeatherDisplay:10.37,2013-06-24 08:15:00,
2013-06-24 01:25:00,74.6,34.3,29.41,ESE,119,1.0,5.0,23,0.00,CLR,,0.00,WeatherDisplay:10.37,2013-06-24 08:25:00,
2013-06-24 01:30:00,74.2,34.0,29.41,ESE,120,3.0,5.0,23,0.00,CLR,,0.00,WeatherDisplay:10.37,2013-06-24 08:30:00,
2013-06-24 01:45:00,74.4,34.2,29.40,South,184,8.0,12.0,23,0.00,CLR,,0.00,WeatherDisplay:10.37,2013-06-24 08:45:00,
2013-06-24 01:55:00,74.6,34.4,29.40,South,189,7.0,14.0,23,0.00,CLR,,0.00,WeatherDisplay:10.37,2013-06-24 08:55:00,
2013-06-24 02:00:00,74.2,35.1,29.40,SSW,195,6.0,17.0,24,0.00,CLR,,0.00,WeatherDisplay:10.37,2013-06-24 09:00:00,
2013-06-24 02:10:00,74.1,35.0,29.40,SSW,210,12.0,18.0,24,0.00,CLR,,0.00,WeatherDisplay:10.37,2013-06-24 09:10:00,
2013-06-24 02:15:00,74.7,33.3,29.40,SW,218,9.0,18.0,22,0.00,CLR,,0.00,WeatherDisplay:10.37,2013-06-24 09:15:00,
2013-06-24 02:20:00,74.7,34.4,29.40,SW,218,7.0,16.0,23,0.00,CLR,,0.00,WeatherDisplay:10.37,2013-06-24 09:20:00,
2013-06-24 02:25:00,73.7,34.7,29.41,SSW,197,6.0,13.0,24,0.00,CLR,,0.00,WeatherDisplay:10.37,2013-06-24 09:25:00,
2013-06-24 02:30:00,73.3,34.3,29.41,SSW,204,6.0,12.0,24,0.00,CLR,,0.00,WeatherDisplay:10.37,2013-06-24 09:30:00,
2013-06-24 02:45:00,72.8,33.9,29.41,SSW,200,0.0,6.0,24,0.00,CLR,,0.00,WeatherDisplay:10.37,2013-06-24 09:45:00,
2013-06-24 02:50:00,72.8,33.9,29.41,SSW,200,0.0,2.0,24,0.00,CLR,,0.00,WeatherDisplay:10.37,2013-06-24 09:50:00,
2013-06-24 02:55:00,72.1,33.3,29.41,SSW,200,3.0,5.0,24,0.00,CLR,,0.00,WeatherDisplay:10.37,2013-06-24 09:55:00,
2013-06-24 03:00:00,72.0,33.2,29.41,SSW,200,1.0,2.0,24,0.00,CLR,,0.00,WeatherDisplay:10.37,2013-06-24 10:00:00,
2013-06-24 03:10:00,71.6,32.9,29.41,South,178,2.0,7.0,24,0.00,CLR,,0.00,WeatherDisplay:10.37,2013-06-24 10:10:00,
2013-06-24 03:20:00,71.8,34.1,29.41,SSE,164,0.0,6.0,25,0.00,CLR,,0.00,WeatherDisplay:10.37,2013-06-24 10:20:00,
2013-06-24 03:25:00,71.5,33.8,29.42,SSE,164,0.0,2.0,25,0.00,CLR,,0.00,WeatherDisplay:10.37,2013-06-24 10:25:00,
2013-06-24 03:35:00,70.5,33.9,29.42,SSE,164,0.0,0.0,26,0.00,CLR,,0.00,WeatherDisplay:10.37,2013-06-24 10:35:00,
2013-06-24 03:40:00,69.9,34.4,29.42,SSE,164,0.0,0.0,27,0.00,CLR,,0.00,WeatherDisplay:10.37,2013-06-24 10:40:00,
2013-06-24 03:50:00,69.0,34.5,29.43,SSE,164,2.0,3.0,28,0.00,CLR,,0.00,WeatherDisplay:10.37,2013-06-24 10:50:00,
2013-06-24 03:55:00,68.8,33.4,29.42,SSE,164,1.0,3.0,27,0.00,CLR,,0.00,WeatherDisplay:10.37,2013-06-24 10:55:00,
2013-06-24 04:00:00,68.6,33.3,29.42,SSE,164,1.0,3.0,27,0.00,CLR,,0.00,WeatherDisplay:10.37,2013-06-24 11:00:00,
2013-06-24 04:10:00,69.1,33.7,29.43,SSE,164,0.0,1.0,27,0.00,CLR,,0.00,WeatherDisplay:10.37,2013-06-24 11:10:00,
2013-06-24 04:15:00,69.1,33.7,29.43,SSE,164,0.0,0.0,27,0.00,CLR,,0.00,WeatherDisplay:10.37,2013-06-24 11:15:00,
2013-06-24 04:25:00,67.9,33.6,29.43,SSE,164,1.0,3.0,28,0.00,CLR,,0.00,WeatherDisplay:10.37,2013-06-24 11:25:00,
2013-06-24 04:30:00,67.5,32.3,29.43,SSE,164,1.0,4.0,27,0.00,CLR,,0.00,WeatherDisplay:10.37,2013-06-24 11:30:00,
2013-06-24 04:40:00,67.6,33.3,29.43,SSE,164,0.0,2.0,28,0.00,CLR,,0.00,WeatherDisplay:10.37,2013-06-24 11:40:00,
2013-06-24 04:45:00,67.8,33.5,29.43,SSE,164,0.0,2.0,28,0.00,CLR,,0.00,WeatherDisplay:10.37,2013-06-24 11:45:00,
2013-06-24 04:50:00,68.1,32.8,29.43,SSE,164,0.0,2.0,27,0.00,CLR,,0.00,WeatherDisplay:10.37,2013-06-24 11:50:00,
2013-06-24 04:55:00,68.3,33.0,29.44,SSE,164,0.0,0.0,27,0.00,CLR,,0.00,WeatherDisplay:10.37,2013-06-24 11:55:00,
2013-06-24 05:00:00,68.6,33.3,29.43,SSE,164,2.0,3.0,27,0.00,CLR,,0.00,WeatherDisplay:10.37,2013-06-24 12:00:00,
2013-06-24 05:10:00,68.7,33.3,29.43,SSE,164,1.0,3.0,27,0.00,CLR,,0.00,WeatherDisplay:10.37,2013-06-24 12:10:00,
2013-06-24 05:15:00,68.4,33.1,29.44,SSE,164,3.0,4.0,27,0.00,CLR,,0.00,WeatherDisplay:10.37,2013-06-24 12:15:00,
2013-06-24 05:20:00,68.4,33.1,29.44,SSE,164,1.0,3.0,27,0.00,CLR,,0.00,WeatherDisplay:10.37,2013-06-24 12:20:00,
2013-06-24 05:25:00,68.4,33.1,29.45,SSE,164,0.0,2.0,27,0.00,CLR,,0.00,WeatherDisplay:10.37,2013-06-24 12:25:00,
2013-06-24 05:30:00,68.1,32.8,29.45,SSE,164,0.0,0.0,27,0.00,CLR,,0.00,WeatherDisplay:10.37,2013-06-24 12:30:00,
2013-06-24 05:40:00,67.3,33.1,29.45,SSE,164,0.0,1.0,28,0.00,CLR,,0.00,WeatherDisplay:10.37,2013-06-24 12:40:00,
2013-06-24 05:45:00,66.8,31.7,29.46,SSE,164,0.0,0.0,27,0.00,CLR,,0.00,WeatherDisplay:10.37,2013-06-24 12:45:00,
2013-06-24 05:50:00,66.4,32.3,29.46,SSE,164,0.0,1.0,28,0.00,CLR,,0.00,WeatherDisplay:10.37,2013-06-24 12:50:00,
2013-06-24 05:55:00,66.0,31.9,29.46,SSE,164,0.0,2.0,28,0.00,CLR,,0.00,WeatherDisplay:10.37,2013-06-24 12:55:00,
2013-06-24 06:00:00,65.8,32.6,29.46,SSE,164,0.0,2.0,29,0.00,CLR,,0.00,WeatherDisplay:10.37,2013-06-24 13:00:00,
2013-06-24 06:10:00,65.3,33.1,29.47,SSE,164,1.0,3.0,30,0.00,CLR,,0.00,WeatherDisplay:10.37,2013-06-24 13:10:00,
2013-06-24 06:30:00,67.9,32.7,29.47,SSE,164,2.0,3.0,27,0.00,CLR,,0.00,WeatherDisplay:10.37,2013-06-24 13:30:00,
2013-06-24 06:45:00,70.1,33.6,29.48,SSE,164,0.0,2.0,26,0.00,CLR,,0.00,WeatherDisplay:10.37,2013-06-24 13:45:00,
2013-06-24 06:50:00,70.3,33.8,29.48,SSE,164,0.0,0.0,26,0.00,CLR,,0.00,WeatherDisplay:10.37,2013-06-24 13:50:00,
2013-06-24 07:00:00,70.3,34.7,29.48,SSE,164,0.0,3.0,27,0.00,CLR,,0.00,WeatherDisplay:10.37,2013-06-24 14:00:00,
2013-06-24 07:10:00,70.3,33.8,29.49,East,96,0.0,2.0,26,0.00,CLR,,0.00,WeatherDisplay:10.37,2013-06-24 14:10:00,
2013-06-24 07:30:00,71.0,34.3,29.50,East,96,1.0,3.0,26,0.00,CLR,,0.00,WeatherDisplay:10.37,2013-06-24 14:30:00,
2013-06-24 07:40:00,71.8,36.0,29.50,East,96,0.0,3.0,27,0.00,CLR,,0.00,WeatherDisplay:10.37,2013-06-24 14:40:00,
2013-06-24 07:45:00,72.0,37.1,29.50,East,96,0.0,2.0,28,0.00,CLR,,0.00,WeatherDisplay:10.37,2013-06-24 14:45:00,
2013-06-24 07:55:00,72.3,36.4,29.50,East,96,0.0,2.0,27,0.00,CLR,,0.00,WeatherDisplay:10.37,2013-06-24 14:55:00,
2013-06-24 08:00:00,72.5,35.6,29.50,East,96,0.0,1.0,26,0.00,CLR,,0.00,WeatherDisplay:10.37,2013-06-24 15:00:00,
2013-06-24 08:15:00,75.4,36.1,29.50,East,99,3.0,5.0,24,0.00,CLR,,0.00,WeatherDisplay:10.37,2013-06-24 15:15:00,
2013-06-24 08:20:00,75.6,37.3,29.50,ESE,104,0.0,4.0,25,0.00,CLR,,0.00,WeatherDisplay:10.37,2013-06-24 15:20:00,
2013-06-24 08:25:00,75.9,37.5,29.50,ESE,106,0.0,0.0,25,0.00,CLR,,0.00,WeatherDisplay:10.37,2013-06-24 15:25:00,
2013-06-24 08:30:00,76.1,37.7,29.50,ESE,106,2.0,3.0,25,0.00,CLR,,0.00,WeatherDisplay:10.37,2013-06-24 15:30:00,
2013-06-24 08:40:00,76.8,36.2,29.50,ESE,106,0.0,2.0,23,0.00,CLR,,0.00,WeatherDisplay:10.37,2013-06-24 15:40:00,
2013-06-24 08:45:00,77.0,36.3,29.50,ESE,107,0.0,3.0,23,0.00,CLR,,0.00,WeatherDisplay:10.37,2013-06-24 15:45:00,
2013-06-24 08:55:00,77.0,36.3,29.51,ESE,106,0.0,2.0,23,0.00,CLR,,0.00,WeatherDisplay:10.37,2013-06-24 15:55:00,
2013-06-24 09:00:00,77.0,36.4,29.51,ESE,106,0.0,0.0,23,0.00,CLR,,0.00,WeatherDisplay:10.37,2013-06-24 16:00:00,
2013-06-24 09:15:00,77.6,35.7,29.51,ESE,106,0.0,2.0,22,0.00,CLR,,0.00,WeatherDisplay:10.37,2013-06-24 16:15:00,
2013-06-24 09:30:00,78.4,36.4,29.51,ESE,106,1.0,4.0,22,0.00,CLR,,0.00,WeatherDisplay:10.37,2013-06-24 16:30:00,
2013-06-24 09:40:00,80.1,35.4,29.51,ESE,107,3.0,7.0,20,0.00,CLR,,0.00,WeatherDisplay:10.37,2013-06-24 16:40:00,
2013-06-24 09:45:00,80.7,35.9,29.51,ESE,109,1.0,5.0,20,0.00,CLR,,0.00,WeatherDisplay:10.37,2013-06-24 16:45:00,
2013-06-24 09:50:00,81.4,36.4,29.51,ESE,106,3.0,6.0,20,0.00,CLR,,0.00,WeatherDisplay:10.37,2013-06-24 16:50:00,
2013-06-24 10:05:00,80.5,35.7,29.51,East,86,5.0,8.0,20,0.00,CLR,,0.00,WeatherDisplay:10.37,2013-06-24 17:05:00,
2013-06-24 10:10:00,80.9,36.1,29.51,East,88,5.0,8.0,20,0.00,CLR,,0.00,WeatherDisplay:10.37,2013-06-24 17:10:00,
2013-06-24 10:15:00,80.7,35.9,29.51,East,87,5.0,6.0,20,0.00,CLR,,0.00,WeatherDisplay:10.37,2013-06-24 17:15:00,
2013-06-24 10:20:00,80.9,36.1,29.51,East,86,3.0,7.0,20,0.00,CLR,,0.00,WeatherDisplay:10.37,2013-06-24 17:20:00,
2013-06-24 10:30:00,82.4,39.7,29.51,NE,54,3.0,10.0,22,0.00,CLR,,0.00,WeatherDisplay:10.37,2013-06-24 17:30:00,
2013-06-24 10:40:00,81.9,39.3,29.52,NW,324,12.0,15.0,22,0.00,CLR,,0.00,WeatherDisplay:10.37,2013-06-24 17:40:00,
2013-06-24 10:55:00,81.4,38.9,29.53,NNW,340,5.0,9.0,22,0.00,CLR,,0.00,WeatherDisplay:10.37,2013-06-24 17:55:00,
2013-06-24 11:00:00,81.6,39.1,29.52,NNE,22,2.0,8.0,22,0.00,CLR,,0.00,WeatherDisplay:10.37,2013-06-24 18:00:00,
2013-06-24 11:10:00,82.4,38.5,29.52,ENE,73,2.0,5.0,21,0.00,CLR,,0.00,WeatherDisplay:10.37,2013-06-24 18:10:00,
2013-06-24 11:15:00,82.8,38.8,29.52,East,81,3.0,7.0,21,0.00,CLR,,0.00,WeatherDisplay:10.37,2013-06-24 18:15:00,
2013-06-24 11:25:00,83.6,38.2,29.52,SSW,192,5.0,8.0,20,0.00,CLR,,0.00,WeatherDisplay:10.37,2013-06-24 18:25:00,
2013-06-24 11:30:00,83.4,39.3,29.52,SSW,210,2.0,5.0,21,0.00,CLR,,0.00,WeatherDisplay:10.37,2013-06-24 18:30:00,
2013-06-24 11:45:00,82.4,40.9,29.52,SW,234,18.0,26.0,23,0.00,CLR,,0.00,WeatherDisplay:10.37,2013-06-24 18:45:00,
2013-06-24 11:50:00,81.4,41.1,29.53,SSW,211,16.0,24.0,24,0.00,CLR,,0.00,WeatherDisplay:10.37,2013-06-24 18:50:00,
2013-06-24 12:00:00,81.8,39.2,29.53,SW,228,23.0,30.0,22,0.00,CLR,,0.00,WeatherDisplay:10.37,2013-06-24 19:00:00,
2013-06-24 12:10:00,80.8,42.7,29.53,SSW,212,18.0,28.0,26,0.00,CLR,,0.00,WeatherDisplay:10.37,2013-06-24 19:10:00,
2013-06-24 12:20:00,82.2,41.8,29.53,SSW,213,15.0,25.0,24,0.00,CLR,,0.00,WeatherDisplay:10.37,2013-06-24 19:20:00,
2013-06-24 12:30:00,83.6,41.9,29.51,SSW,203,13.0,22.0,23,0.00,CLR,,0.00,WeatherDisplay:10.37,2013-06-24 19:30:00,
2013-06-24 12:45:00,84.5,40.3,29.51,WSW,241,16.0,23.0,21,0.00,CLR,,0.00,WeatherDisplay:10.37,2013-06-24 19:45:00,
2013-06-24 12:55:00,83.0,42.5,29.52,SW,219,17.0,27.0,24,0.00,CLR,,0.00,WeatherDisplay:10.37,2013-06-24 19:55:00,
2013-06-24 13:00:00,83.9,43.2,29.51,SW,215,13.0,24.0,24,0.00,CLR,,0.00,WeatherDisplay:10.37,2013-06-24 20:00:00,
2013-06-24 13:10:00,84.1,42.3,29.51,SSW,202,14.0,27.0,23,0.00,CLR,,0.00,WeatherDisplay:10.37,2013-06-24 20:10:00,
2013-06-24 13:15:00,85.1,41.9,29.51,SSW,205,12.0,30.0,22,0.00,CLR,,0.00,WeatherDisplay:10.37,2013-06-24 20:15:00,
2013-06-24 13:20:00,84.3,42.5,29.51,SW,214,9.0,30.0,23,0.00,CLR,,0.00,WeatherDisplay:10.37,2013-06-24 20:20:00,
2013-06-24 13:35:00,85.3,42.1,29.51,West,264,15.0,24.0,22,0.00,CLR,,0.00,WeatherDisplay:10.37,2013-06-24 20:35:00,
2013-06-24 13:40:00,86.0,41.5,29.51,SW,235,20.0,26.0,21,0.00,CLR,,0.00,WeatherDisplay:10.37,2013-06-24 20:40:00,
2013-06-24 13:45:00,85.3,41.0,29.51,WSW,238,16.0,26.0,21,0.00,CLR,,0.00,WeatherDisplay:10.37,2013-06-24 20:45:00,
2013-06-24 13:50:00,85.7,41.3,29.51,WSW,253,17.0,33.0,21,0.00,CLR,,0.00,WeatherDisplay:10.37,2013-06-24 20:50:00,
2013-06-24 14:00:00,84.0,43.4,29.52,SW,231,25.0,33.0,24,0.00,CLR,,0.00,WeatherDisplay:10.37,2013-06-24 21:00:00,
2013-06-24 14:10:00,83.8,43.2,29.52,WSW,243,24.0,33.0,24,0.00,CLR,,0.00,WeatherDisplay:10.37,2013-06-24 21:10:00,
2013-06-24 14:15:00,84.1,44.5,29.52,WSW,246,24.0,31.0,25,0.00,CLR,,0.00,WeatherDisplay:10.37,2013-06-24 21:15:00,
2013-06-24 14:25:00,83.5,44.0,29.52,WSW,244,23.0,31.0,25,0.00,CLR,,0.00,WeatherDisplay:10.37,2013-06-24 21:25:00,
2013-06-24 14:30:00,83.5,45.0,29.52,WSW,251,22.0,35.0,26,0.00,CLR,,0.00,WeatherDisplay:10.37,2013-06-24 21:30:00,
2013-06-24 14:40:00,82.9,45.5,29.51,WSW,239,29.0,37.0,27,0.00,,,0.00,WeatherDisplay:10.37,2013-06-24 21:40:00,
2013-06-24 14:45:00,83.6,45.1,29.51,SW,235,28.0,35.0,26,0.00,CLR,,0.00,WeatherDisplay:10.37,2013-06-24 21:45:00,
2013-06-24 14:50:00,83.4,44.9,29.52,SW,225,28.0,35.0,26,0.00,,,0.00,WeatherDisplay:10.37,2013-06-24 21:50:00,
2013-06-24 14:55:00,82.4,45.1,29.52,SW,228,29.0,36.0,27,0.00,,,0.00,WeatherDisplay:10.37,2013-06-24 21:55:00,
2013-06-24 15:05:00,82.0,44.7,29.52,SW,221,28.0,35.0,27,0.00,,,0.00,WeatherDisplay:10.37,2013-06-24 22:05:00,
2013-06-24 15:10:00,82.6,45.2,29.52,SW,220,22.0,31.0,27,0.00,CLR,,0.00,WeatherDisplay:10.37,2013-06-24 22:10:00,
2013-06-24 15:20:00,82.7,45.3,29.52,SW,217,24.0,31.0,27,0.00,CLR,,0.00,WeatherDisplay:10.37,2013-06-24 22:20:00,
2013-06-24 15:35:00,82.8,45.4,29.52,SW,218,24.0,30.0,27,0.00,CLR,,0.00,WeatherDisplay:10.37,2013-06-24 22:35:00,
2013-06-24 15:45:00,82.9,43.4,29.52,SW,218,25.0,35.0,25,0.00,CLR,,0.00,WeatherDisplay:10.37,2013-06-24 22:45:00,
2013-06-24 15:50:00,82.7,44.3,29.52,SSW,212,29.0,35.0,26,0.00,,,0.00,WeatherDisplay:10.37,2013-06-24 22:50:00,
2013-06-24 16:00:00,82.7,44.3,29.52,SW,226,28.0,36.0,26,0.00,CLR,,0.00,WeatherDisplay:10.37,2013-06-24 23:00:00,
2013-06-24 16:10:00,82.6,44.3,29.52,SW,229,28.0,35.0,26,0.00,,,0.00,WeatherDisplay:10.37,2013-06-24 23:10:00,
2013-06-24 16:15:00,82.7,44.3,29.52,SW,232,25.0,33.0,26,0.00,CLR,,0.00,WeatherDisplay:10.37,2013-06-24 23:15:00,
2013-06-24 16:20:00,82.5,45.2,29.52,SW,224,25.0,35.0,27,0.00,,,0.00,WeatherDisplay:10.37,2013-06-24 23:20:00,
2013-06-24 16:25:00,82.0,44.7,29.52,SW,221,29.0,36.0,27,0.00,CLR,,0.00,WeatherDisplay:10.37,2013-06-24 23:25:00,
2013-06-24 16:30:00,82.4,45.1,29.52,SW,223,28.0,36.0,27,0.00,,,0.00,WeatherDisplay:10.37,2013-06-24 23:30:00,
2013-06-24 16:40:00,82.2,44.9,29.52,SW,226,24.0,38.0,27,0.00,CLR,,0.00,WeatherDisplay:10.37,2013-06-24 23:40:00,
2013-06-24 16:45:00,82.2,44.9,29.52,SW,224,30.0,35.0,27,0.00,,,0.00,WeatherDisplay:10.37,2013-06-24 23:45:00,
2013-06-24 16:50:00,82.0,44.7,29.52,SW,225,26.0,35.0,27,0.00,CLR,,0.00,WeatherDisplay:10.37,2013-06-24 23:50:00,
2013-06-24 16:55:00,81.6,45.3,29.52,SW,227,25.0,33.0,28,0.00,CLR,,0.00,WeatherDisplay:10.37,2013-06-24 23:55:00,
2013-06-24 17:00:00,82.0,44.7,29.52,SW,227,29.0,35.0,27,0.00,CLR,,0.00,WeatherDisplay:10.37,2013-06-25 00:00:00,
2013-06-24 17:10:00,83.1,45.6,29.52,SW,229,24.0,31.0,27,0.00,CLR,,0.00,WeatherDisplay:10.37,2013-06-25 00:10:00,
2013-06-24 17:15:00,82.6,45.2,29.52,WSW,237,21.0,32.0,27,0.00,CLR,,0.00,WeatherDisplay:10.37,2013-06-25 00:15:00,
2013-06-24 17:20:00,82.6,45.2,29.51,WSW,241,25.0,35.0,27,0.00,,,0.00,WeatherDisplay:10.37,2013-06-25 00:20:00,
2013-06-24 17:25:00,82.5,45.2,29.52,SW,233,26.0,35.0,27,0.00,CLR,,0.00,WeatherDisplay:10.37,2013-06-25 00:25:00,
2013-06-24 17:30:00,81.8,44.6,29.52,SW,226,26.0,33.0,27,0.00,CLR,,0.00,WeatherDisplay:10.37,2013-06-25 00:30:00,
2013-06-24 17:40:00,81.7,45.4,29.52,SW,225,22.0,33.0,28,0.00,CLR,,0.00,WeatherDisplay:10.37,2013-06-25 00:40:00,
2013-06-24 17:50:00,81.2,44.1,29.53,SW,216,16.0,30.0,27,0.00,CLR,,0.00,WeatherDisplay:10.37,2013-06-25 00:50:00,
2013-06-24 17:55:00,81.1,44.9,29.52,SSW,208,20.0,28.0,28,0.00,CLR,,0.00,WeatherDisplay:10.37,2013-06-25 00:55:00,
2013-06-24 18:00:00,81.8,44.5,29.51,SW,220,20.0,24.0,27,0.00,CLR,,0.00,WeatherDisplay:10.37,2013-06-25 01:00:00,
2013-06-24 18:10:00,80.9,44.7,29.52,SW,216,17.0,22.0,28,0.00,CLR,,0.00,WeatherDisplay:10.37,2013-06-25 01:10:00,
2013-06-24 18:15:00,80.7,43.6,29.53,SSW,213,17.0,25.0,27,0.00,CLR,,0.00,WeatherDisplay:10.37,2013-06-25 01:15:00,
2013-06-24 18:25:00,80.5,44.4,29.51,SW,220,17.0,33.0,28,0.00,CLR,,0.00,WeatherDisplay:10.37,2013-06-25 01:25:00,
2013-06-24 18:30:00,79.9,43.9,29.52,SW,216,22.0,33.0,28,0.00,CLR,,0.00,WeatherDisplay:10.37,2013-06-25 01:30:00,
2013-06-24 18:50:00,79.9,44.8,29.51,SSW,206,18.0,24.0,29,0.00,CLR,,0.00,WeatherDisplay:10.37,2013-06-25 01:50:00,
2013-06-24 18:55:00,79.9,44.8,29.51,SSW,207,17.0,22.0,29,0.00,CLR,,0.00,WeatherDisplay:10.37,2013-06-25 01:55:00,
2013-06-24 19:00:00,79.8,45.6,29.51,SW,214,20.0,26.0,30,0.00,CLR,,0.00,WeatherDisplay:10.37,2013-06-25 02:00:00,
2013-06-24 19:10:00,80.0,44.9,29.50,SW,214,16.0,24.0,29,0.00,CLR,,0.00,WeatherDisplay:10.37,2013-06-25 02:10:00,
2013-06-24 19:15:00,80.9,43.7,29.50,SSW,204,14.0,20.0,27,0.00,CLR,,0.00,WeatherDisplay:10.37,2013-06-25 02:15:00,
2013-06-24 19:20:00,81.4,45.1,29.51,SSW,205,16.0,21.0,28,0.00,CLR,,0.00,WeatherDisplay:10.37,2013-06-25 02:20:00,
2013-06-24 19:30:00,80.9,44.7,29.50,SSW,206,9.0,15.0,28,0.00,CLR,,0.00,WeatherDisplay:10.37,2013-06-25 02:30:00,
2013-06-24 19:40:00,79.8,45.6,29.50,SSW,196,12.0,20.0,30,0.00,CLR,,0.00,WeatherDisplay:10.37,2013-06-25 02:40:00,
2013-06-24 19:45:00,79.6,45.4,29.50,SSW,197,10.0,18.0,30,0.00,CLR,,0.00,WeatherDisplay:10.37,2013-06-25 02:45:00,
2013-06-24 19:50:00,79.4,45.3,29.50,South,190,5.0,12.0,30,0.00,CLR,,0.00,WeatherDisplay:10.37,2013-06-25 02:50:00,
2013-06-24 19:55:00,79.6,44.5,29.50,South,188,6.0,13.0,29,0.00,CLR,,0.00,WeatherDisplay:10.37,2013-06-25 02:55:00,
2013-06-24 20:00:00,79.8,44.7,29.50,SSW,201,15.0,21.0,29,0.00,CLR,,0.00,WeatherDisplay:10.37,2013-06-25 03:00:00,
2013-06-24 20:10:00,77.7,46.3,29.52,SSW,206,12.0,20.0,33,0.00,CLR,,0.00,WeatherDisplay:10.37,2013-06-25 03:10:00,
2013-06-24 20:25:00,76.8,47.1,29.52,South,189,10.0,20.0,35,0.00,CLR,,0.00,WeatherDisplay:10.37,2013-06-25 03:25:00,
2013-06-24 20:30:00,77.0,47.2,29.52,South,190,6.0,18.0,35,0.00,CLR,,0.00,WeatherDisplay:10.37,2013-06-25 03:30:00,
2013-06-24 20:40:00,76.8,47.1,29.52,SSW,201,6.0,12.0,35,0.00,CLR,,0.00,WeatherDisplay:10.37,2013-06-25 03:40:00,
2013-06-24 20:45:00,77.6,45.4,29.52,SSW,211,9.0,13.0,32,0.00,CLR,,0.00,WeatherDisplay:10.37,2013-06-25 03:45:00,
2013-06-24 21:00:00,78.4,45.3,29.53,SW,216,14.0,20.0,31,0.00,CLR,,0.00,WeatherDisplay:10.37,2013-06-25 04:00:00,
2013-06-24 21:05:00,77.1,47.3,29.53,SW,217,15.0,24.0,35,0.00,CLR,,0.00,WeatherDisplay:10.37,2013-06-25 04:05:00,
2013-06-24 21:10:00,77.0,46.5,29.53,SW,218,10.0,17.0,34,0.00,CLR,,0.00,WeatherDisplay:10.37,2013-06-25 04:10:00,
2013-06-24 21:20:00,77.7,46.3,29.53,SSW,197,6.0,13.0,33,0.00,CLR,,0.00,WeatherDisplay:10.37,2013-06-25 04:20:00,
2013-06-24 21:25:00,78.1,45.8,29.52,SSW,194,6.0,10.0,32,0.00,CLR,,0.00,WeatherDisplay:10.37,2013-06-25 04:25:00,
2013-06-24 21:30:00,77.6,46.2,29.53,South,176,2.0,12.0,33,0.00,CLR,,0.00,WeatherDisplay:10.37,2013-06-25 04:30:00,
2013-06-24 21:40:00,77.4,46.0,29.54,SSE,157,1.0,6.0,33,0.00,CLR,,0.00,WeatherDisplay:10.37,2013-06-25 04:40:00,
2013-06-24 21:45:00,77.0,46.5,29.54,South,172,5.0,10.0,34,0.00,CLR,,0.00,WeatherDisplay:10.37,2013-06-25 04:45:00,
2013-06-24 21:50:00,76.7,47.0,29.55,SSW,194,5.0,14.0,35,0.00,CLR,,0.00,WeatherDisplay:10.37,2013-06-25 04:50:00,
2013-06-24 21:55:00,76.0,47.1,29.55,South,187,7.0,15.0,36,0.00,CLR,,0.00,WeatherDisplay:10.37,2013-06-25 04:55:00,
2013-06-24 22:00:00,75.4,48.0,29.55,South,184,8.0,14.0,38,0.00,CLR,,0.00,WeatherDisplay:10.37,2013-06-25 05:00:00,
2013-06-24 22:10:00,74.4,47.8,29.55,South,185,5.0,12.0,39,0.00,CLR,,0.00,WeatherDisplay:10.37,2013-06-25 05:10:00,
2013-06-24 22:15:00,74.2,47.6,29.55,South,183,2.0,6.0,39,0.00,CLR,,0.00,WeatherDisplay:10.37,2013-06-25 05:15:00,
2013-06-24 22:20:00,74.2,47.6,29.55,South,180,2.0,6.0,39,0.00,CLR,,0.00,WeatherDisplay:10.37,2013-06-25 05:20:00,
2013-06-24 22:25:00,74.2,47.6,29.55,South,179,2.0,9.0,39,0.00,CLR,,0.00,WeatherDisplay:10.37,2013-06-25 05:25:00,
2013-06-24 22:30:00,74.6,46.6,29.55,South,179,0.0,7.0,37,0.00,CLR,,0.00,WeatherDisplay:10.37,2013-06-25 05:30:00,
2013-06-24 22:40:00,75.7,46.1,29.55,SSW,208,2.0,7.0,35,0.00,CLR,,0.00,WeatherDisplay:10.37,2013-06-25 05:40:00,
2013-06-24 22:50:00,76.0,46.4,29.55,SSW,192,5.0,9.0,35,0.00,CLR,,0.00,WeatherDisplay:10.37,2013-06-25 05:50:00,
2013-06-24 22:55:00,76.1,46.5,29.55,WSW,243,10.0,14.0,35,0.00,CLR,,0.00,WeatherDisplay:10.37,2013-06-25 05:55:00,
2013-06-24 23:00:00,76.3,45.9,29.56,WSW,242,12.0,20.0,34,0.00,CLR,,0.00,WeatherDisplay:10.37,2013-06-25 06:00:00,
2013-06-24 23:10:00,75.8,46.2,29.56,SW,226,9.0,15.0,35,0.00,CLR,,0.00,WeatherDisplay:10.37,2013-06-25 06:10:00,
2013-06-24 23:15:00,75.3,47.2,29.56,SW,236,8.0,15.0,37,0.00,CLR,,0.00,WeatherDisplay:10.37,2013-06-25 06:15:00,
2013-06-24 23:20:00,75.6,46.0,29.55,West,259,12.0,17.0,35,0.00,CLR,,0.00,WeatherDisplay:10.37,2013-06-25 06:20:00,
2013-06-24 23:30:00,75.4,45.8,29.56,WSW,254,6.0,9.0,35,0.00,CLR,,0.00,WeatherDisplay:10.37,2013-06-25 06:30:00,
2013-06-24 23:40:00,75.4,45.9,29.56,WSW,247,5.0,10.0,35,0.00,CLR,,0.00,WeatherDisplay:10.37,2013-06-25 06:40:00,
2013-06-24 23:50:00,74.6,46.6,29.57,SW,231,9.0,14.0,37,0.00,CLR,,0.00,WeatherDisplay:10.37,2013-06-25 06:50:00,